Regional Weather Roundup
Issued by NWS

Home | Current Version | Previous Version | Graphics & Text | Print | Product List | Glossary On
Versions: 1 2 3 4 5 6 7 8 9 10 11 12 13 14 15 16 17 18 19 20 21 22 23 24 25 26 27 28 29 30 31 32 33 34 35 36 37 38 39 40 41 42 43 44 45 46 47 48 49 50
000
ASUS43 KLOT 080903
RWRIL

ILLINOIS REGIONAL WEATHER ROUNDUP
NATIONAL WEATHER SERVICE CHICAGO/ROMEOVILLE IL
300 AM CST MON FEB 08 2016

NOTE: "FAIR" INDICATES FEW OR NO CLOUDS BELOW 12,000 FEET WITH NO
SIGNIFICANT WEATHER AND/OR OBSTRUCTIONS TO VISIBILITY.

* THESE STATIONS ARE NOT UNDER NWS QUALITY CONTROL. THEY ALSO MAY NOT
  REPORT WEATHER SUCH AS PRECIPITATION OR FOG.

ILZ001-002-007-009-015-016-024-081000-
NORTHWEST ILLINOIS

CITY           SKY/WX    TMP DP  RH WIND       PRES   REMARKS
MOLINE         CLOUDY    32  23  69 NW20G26   29.70S WCI  20
STERLING*      CLOUDY    32  25  74 W18       29.64S WCI  20
$$

ILZ003-004-008-010-011-017-018-081000-
NORTH CENTRAL ILLINOIS

CITY           SKY/WX    TMP DP  RH WIND       PRES   REMARKS
ROCKFORD       FLURRIES  34  30  85 W9        29.64F WCI  27
FREEPORT*      CLOUDY    30  26  83 W16G23    29.66S WCI  19
$$

ILZ005-006-012>014-019>023-081000-
NORTHEAST ILLINOIS

CITY           SKY/WX    TMP DP  RH WIND       PRES   REMARKS
CHICAGO-OHARE  PTCLDY    30  27  88 W7        29.63F WCI  23
CHICAGO-MIDWAY PTCLDY    32  25  75 W8        29.64F WCI  25
AURORA         MOCLDY    31  27  85 SW6       29.64F WCI  25
WAUKEGAN       CLOUDY    30  28  92 W3        29.61F
DUPAGE AIRPORT PTCLDY    29  25  85 SW6       29.62F WCI  23
WHEELING       CLEAR     31  27  85 W5        29.64F WCI  26
NORTHERLY ISL    N/A     33  27  79 W8          N/A  WCI  26
$$

LMZ740>746-081000-
SOUTHERN LAKE MICHIGAN

STATION/POSITION SKY/WX   TEMP    WIND        PRES    VSBY  WAVE
                          AIR SEA DIR/SP/G                  HT/PER
                          (F)     (DEG/KT/KT) (MB)    (MI)  (FT/S)
HARRISON CRIB              36     250/ 15/ 17   N/A
BURNHAM HARBOR             33     250/  8/  9   N/A
CALUMET HARBOR             33     200/  4/  5 1003.9F
BURNS HARBOR               35     210/ 10/ 12 1005.4F
MICHIGAN CITY              34     190/  8/  9   N/A
$$

ILZ025>027-034>036-040-047-049-050-058-095>099-081000-
WEST-CENTRAL ILLINOIS

CITY           SKY/WX    TMP DP  RH WIND       PRES   REMARKS
QUINCY         CLOUDY    33  29  85 W14       29.77S WCI  23
MACOMB*        CLOUDY    32  31  97 NW18G24   29.76S WCI  20
$$

ILZ028>032-037-038-041>044-048-051>054-059>061-081000-
CENTRAL ILLINOIS

CITY           SKY/WX    TMP DP  RH WIND       PRES   REMARKS
BLOOMINGTON    CLOUDY    33  30  89 W13       29.70F WCI  24
DECATUR        MOCLDY    35  27  72 W10       29.73S WCI  27
PEORIA         LGT SNOW  33  30  88 W9        29.70F FOG     WCI  25
SPRINGFIELD    CLOUDY    34  31  88 W10       29.74F WCI  26
TAYLORVILLE    NOT AVBL
$$

ILZ033-039-045-046-055>057-062-063-081000-
EAST-CENTRAL ILLINOIS

CITY           SKY/WX    TMP DP  RH WIND       PRES   REMARKS
CHAMPAIGN      CLEAR     30  27  88 W7        29.71F WCI  23
MATTOON        CLOUDY    34  29  82 W6        29.72F WCI  29
$$

ILZ079-100>102-081000-
SOUTHWEST ILLINOIS

CITY           SKY/WX    TMP DP  RH WIND       PRES   REMARKS
BELLEVILLE     CLOUDY    38  29  72 W13       29.79F WCI  30
CAHOKIA*       CLOUDY    39  28  64 W10       29.81F WCI  32
SPARTA*        CLOUDY    37  29  73 W10       29.82S WCI  30
$$

ILZ064>066-069>071-074>076-080>082-084>086-088>090-092>094-081000-
SOUTH-CENTRAL ILLINOIS

CITY           SKY/WX    TMP DP  RH WIND       PRES   REMARKS
CARBONDALE     CLOUDY    41  25  53 NW14G22   29.81F
MT. VERNON     CLOUDY    39  27  60 W10G18    29.79S WCI  32
CENTRALIA*     CLOUDY    38  31  76 W17       29.78S WCI  29
SALEM*         CLOUDY    39  31  73 W13       29.78S WCI  31
$$

ILZ067-068-072-073-078-083-087-091-081000-
SOUTHEAST ILLINOIS

CITY           SKY/WX    TMP DP  RH WIND       PRES   REMARKS
LAWRENCEVILLE  PTCLDY    35  33  92 CALM      29.75F
HARRISBURG*    CLOUDY    39  32  76 W15       29.80S WCI  31
ROBINSON*      CLOUDY    32  31  96 CALM      29.76F
CARMI*         CLOUDY    37  33  85 W8        29.77F WCI  31
$$

ABBREVIATIONS USED IN REMARKS
   TC - TEMPERATURE IN CELSIUS
  WCI - WIND CHILL INDEX
   HX - HEAT INDEX
  VSB - VISIBILITY
$$




USA.gov is the U.S. government's official web portal to all federal, state and local government web resources and services.